{"data":{"norad_id":64240,"epoch":"2026-05-25T04:23:43.325376Z","epoch_age_seconds":55851,"freshness":"FRESH","line1":"1 64240U 25119H   26145.18314034  .00171549  00000+0  13116-2 0  9996","line2":"2 64240  43.0009 108.1690 0002024 267.5988  92.4648 15.70865572 57272","mean_motion":15.70865572,"eccentricity":0.0002024,"inclination_deg":43.0009,"raan_deg":108.169,"arg_perigee_deg":267.5988,"mean_anomaly_deg":92.4648,"bstar":0.0013116,"rev_number":5727,"period_min":91.669206179534,"perigee_km":355.05889826207,"apogee_km":357.78504773434,"semimajor_km":6734.5589729982,"source":"CELESTRAK","updated_at":"2026-05-25T13:38:20.352266Z"}}